This is the latest recevied weather packets stored in our database for station/object N2ZVN. If no packets are shown the sender has not sent any weather packets the latest 10 day(s).
| Time | Temp. | Humidity | Pressure | Rain* | Wind** | Luminosity | Snow |
|---|---|---|---|---|---|---|---|
| 1777952777 | 17.78° C | 52% | 1002.8 hPa | 0 mm | - | 0 W/m² | - |
| 1777952474 | 17.78° C | 51% | 1002.7 hPa | 0 mm | - | 0 W/m² | - |
| 1777952171 | 18.33° C | 52% | 1002.8 hPa | 0 mm | - | 0 W/m² | - |
| 1777951870 | 18.33° C | 51% | 1003.1 hPa | 0 mm | - | 0 W/m² | - |
| 1777951567 | 18.33° C | 50% | 1003.1 hPa | 0 mm | - | 0 W/m² | - |
| 1777951263 | 18.89° C | 49% | 1003.3 hPa | 0 mm | - | 0 W/m² | - |
| 1777950961 | 18.89° C | 48% | 1003.3 hPa | 0 mm | - | 0 W/m² | - |
| 1777950657 | 18.89° C | 46% | 1003.1 hPa | 0 mm | - | 0 W/m² | - |
| 1777950354 | 18.89° C | 44% | 1003.1 hPa | 0 mm | - | 0 W/m² | - |
| 1777950050 | 18.33° C | 44% | 1003.1 hPa | 0 mm | - | 0 W/m² | - |
| 1777949745 | 17.22° C | 45% | 1003 hPa | 0 mm | - | 0 W/m² | - |
| 1777949445 | 17.22° C | 45% | 1002.7 hPa | 0 mm | - | 0 W/m² | - |
| 1777949141 | 17.22° C | 46% | 1002.9 hPa | 0 mm | - | 0 W/m² | - |
| 1777948838 | 16.67° C | 46% | 1002.9 hPa | 0 mm | - | 0 W/m² | - |
| 1777948535 | 16.67° C | 50% | 1003 hPa | 0 mm | - | 0 W/m² | - |
| 1777948233 | 16.67° C | 47% | 1002.9 hPa | 0 mm | - | 0 W/m² | - |
| 1777947931 | 16.67° C | 48% | 1003 hPa | 0 mm | - | 0 W/m² | - |
| 1777947628 | 16.67° C | 47% | 1003.2 hPa | 0 mm | - | 0 W/m² | - |
| 1777947324 | 16.67° C | 51% | 1003.1 hPa | 0 mm | - | 0 W/m² | - |
| 1777947021 | 16.67° C | 49% | 1003.1 hPa | 0 mm | - | 0 W/m² | - |
| 1777946720 | 16.67° C | 49% | 1003.1 hPa | 0 mm | - | 0 W/m² | - |
| 1777946418 | 16.67° C | 50% | 1003.1 hPa | 0 mm | - | 0 W/m² | - |
| 1777946115 | 16.11° C | 50% | 1003 hPa | 0 mm | - | 0 W/m² | - |
| 1777945812 | 16.11° C | 53% | 1003.3 hPa | 0 mm | - | 0 W/m² | - |
| 1777945509 | 16.11° C | 50% | 1003.1 hPa | 0 mm | - | 0 W/m² | - |
* Rain latest hour (hover to see other rain measurements)
** Current wind speed in m/s (hover to see current wind gust speed)